Weather History for Easton, MD

Change the Weather History Date:

Thursday, January 2, 2014

  Actual Average Record
Temperature  
Mean Temperature 36 °F -  
Max Temperature 42 °F 42 °F 64 °F (1952)
Min Temperature 30 °F 25 °F 7 °F (1968)
Degree Days  
Heating Degree Days 29    
Moisture  
Dew Point 34 °F    
Average Humidity 100    
Maximum Humidity 100    
Minimum Humidity 92    
Precipitation  
Precipitation 0.17 in - - ()
Sea Level Pressure  
Sea Level Pressure 29.94 in    
Wind  
Wind Speed 1 mph (ENE)    
Max Wind Speed 9 mph    
Max Gust Speed -    
Visibility 4 miles    
Events Fog , Rain , Snow    
Averages and records for this station are not official NWS values.
T = Trace of Precipitation, MM = Missing Value Source: NWS Daily Summary

Daily Weather History Graph

Daily Weather History Graph

Search for Another Location

Airport:

Trip Planner

Search our weather history database for the weather conditions in past years. The results will help you decide how hot, cold, wet, or windy it might be!

Date:

Astronomy

Jan. 02, 2014 Rise Set
Actual Time 7:22 AM EST 4:54 PM EST
Civil Twilight 6:53 AM EST 5:23 PM EST
Nautical Twilight 6:19 AM EST 5:57 PM EST
Astronomical Twilight 5:47 AM EST 6:29 PM EST
Moon 8:03 AM EST (1/2) 6:47 PM EST (1/2)
Length of Visible Light 10h 30m
Length of Day
9h 31m
New Moon, 2% of the Moon is Illuminated
Jan 2
New Moon
Jan 7
First Quarter
Jan 15
Full
Jan 24
Last Quarter
Jan 30
New

Hourly Weather History & Observations

Time (EST) Temp. Windchill Dew Point Humidity Pressure Visibility Wind Dir Wind Speed Gust Speed Precip Events Conditions
12:14 AM 33.8 °F - 31.8 °F 92% 30.19 in 10.0 mi Calm Calm - N/A   Clear
12:34 AM 33.3 °F - 32.0 °F 95% 30.17 in 10.0 mi Calm Calm - N/A   Clear
12:54 AM 33.1 °F - 33.1 °F 100% 30.16 in 10.0 mi Calm Calm - N/A   Clear
1:14 AM 34.0 °F - 34.0 °F 100% 30.15 in 10.0 mi Calm Calm - N/A   Clear
1:34 AM 34.9 °F - 34.9 °F 100% 30.15 in 10.0 mi Calm Calm - N/A   Clear
1:54 AM 35.8 °F - 35.8 °F 100% 30.14 in 10.0 mi Calm Calm - N/A   Clear
2:14 AM 35.2 °F - 35.2 °F 100% 30.14 in 10.0 mi Calm Calm - N/A   Clear
2:34 AM 34.0 °F - 34.0 °F 100% 30.14 in 10.0 mi Calm Calm - N/A   Clear
2:54 AM 32.7 °F - 32.7 °F 100% 30.13 in 7.0 mi Calm Calm - N/A   Clear
3:14 AM 32.9 °F - 32.9 °F 100% 30.13 in 7.0 mi Calm Calm - N/A   Clear
3:35 AM 32.7 °F - 32.7 °F 100% 30.12 in 7.0 mi Calm Calm - N/A   Clear
3:55 AM 32.0 °F - 32.0 °F 100% 30.10 in 7.0 mi Calm Calm - N/A   Clear
4:15 AM 32.0 °F - 32.0 °F 100% 30.08 in 7.0 mi Calm Calm - N/A   Clear
4:35 AM 32.2 °F - 32.2 °F 100% 30.07 in 7.0 mi Calm Calm - N/A   Clear
4:55 AM 32.2 °F - 32.2 °F 100% 30.07 in 0.8 mi Calm Calm - N/A   Overcast
5:15 AM 32.0 °F - 32.0 °F 100% 30.06 in 0.2 mi Calm Calm - N/A Fog Fog
5:21 AM 32.0 °F - 32.0 °F 100% 30.06 in 0.2 mi Calm Calm - N/A Fog Fog
5:53 AM 32.0 °F - 32.0 °F 100% 30.04 in 3.0 mi Calm Calm - N/A   Mostly Cloudy
6:25 AM 32.0 °F - 32.0 °F 100% 30.04 in 0.8 mi Calm Calm - N/A   Mist
6:53 AM 32.0 °F - 32.0 °F 100% 30.04 in 0.5 mi Calm Calm - N/A Fog Fog
7:20 AM 32.0 °F - 32.0 °F 100% 30.03 in 1.5 mi Calm Calm - N/A   Overcast
7:50 AM 32.0 °F - 32.0 °F 100% 30.02 in 1.5 mi Calm Calm - N/A   Overcast
8:20 AM 32.0 °F - 32.0 °F 100% 30.01 in 2.5 mi Calm Calm - N/A   Overcast
8:50 AM 33.8 °F - 33.8 °F 100% 30.00 in 2.0 mi Calm Calm - N/A   Overcast
8:53 AM 33.8 °F 29.6 °F 33.8 °F 100% 30.00 in 2.0 mi East 4.6 mph - N/A   Overcast
9:10 AM 33.8 °F 30.8 °F 33.8 °F 100% 30.00 in 1.0 mi East 3.5 mph - N/A   Overcast
9:20 AM 33.8 °F - 33.8 °F 100% 30.00 in 0.5 mi Calm Calm - N/A Fog Fog
9:50 AM 35.6 °F - 35.6 °F 100% 29.99 in 0.8 mi Calm Calm - N/A   Overcast
10:53 AM 37.4 °F 32.8 °F 37.4 °F 100% 29.96 in 1.5 mi NE 5.8 mph - N/A   Overcast
11:53 AM 37.4 °F 32.1 °F 37.4 °F 100% 29.90 in 3.0 mi East 6.9 mph - N/A   Overcast
12:59 PM 41.0 °F 35.8 °F 41.0 °F 100% 29.84 in 5.0 mi East 8.1 mph - N/A   Overcast
2:59 PM 41.0 °F 38.0 °F 41.0 °F 100% 29.81 in 5.0 mi ENE 4.6 mph - N/A   Overcast
3:48 PM 41.0 °F 38.0 °F 39.2 °F 93% 29.80 in 5.0 mi ENE 4.6 mph - N/A   Mostly Cloudy
4:46 PM 39.2 °F 33.0 °F 39.2 °F 100% 29.75 in 7.0 mi East 9.2 mph - N/A   Overcast
5:50 PM 37.4 °F 32.1 °F 37.4 °F 100% 29.71 in 3.0 mi East 6.9 mph - N/A Rain Rain
6:50 PM 37.4 °F 31.4 °F 37.4 °F 100% 29.70 in 3.0 mi East 8.1 mph - N/A Rain Rain
7:45 PM 35.6 °F 30.7 °F 35.6 °F 100% 29.70 in 2.0 mi NE 5.8 mph - N/A Snow Light Snow
8:50 PM 33.8 °F 28.6 °F 33.8 °F 100% 29.67 in 1.0 mi NE 5.8 mph - N/A Snow Snow
9:37 PM 33.3 °F 27.9 °F 33.3 °F 100% 29.64 in 1.2 mi ENE 5.8 mph - 0.04 in Snow Light Snow
9:57 PM 32.9 °F 28.5 °F 32.9 °F 100% 29.66 in 1.0 mi ENE 4.6 mph - 0.06 in Snow Snow
10:17 PM 32.5 °F 28.1 °F 32.5 °F 100% 29.64 in 1.2 mi NE 4.6 mph - 0.02 in Snow Light Snow
10:37 PM 32.0 °F 27.5 °F 32.0 °F 100% 29.65 in 1.0 mi NNE 4.6 mph - 0.04 in Snow Snow
10:57 PM 32.0 °F 26.4 °F 32.0 °F 100% 29.64 in 0.8 mi NNE 5.8 mph - 0.06 in Snow Snow
11:17 PM 31.6 °F 25.1 °F 31.6 °F 100% 29.62 in 0.8 mi NE 6.9 mph - 0.01 in Snow Snow
11:37 PM 31.5 °F 25.8 °F 31.5 °F 100% 29.62 in 1.0 mi NNE 5.8 mph - 0.05 in Snow Snow
11:57 PM 30.6 °F 24.7 °F 30.6 °F 100% 29.61 in 1.0 mi NNE 5.8 mph - 0.05 in Snow Snow